When you browse on this site, cookies collect data to enhance your experience and personalize the content and advertising you see.
Visit our Privacy Policy to learn more. By continuing to use the site, you agree to this use of cookies and data.
  • In United Kingdom
  • List of Countries
  • For 7 days
  • Water Temperature
  • Satellite Maps
  • Weather Map
  • Weather Widgets
  • user-avatar
    Login

    Hourly Weather Hrodna

    Today, 26 May, Sunday

    Time Temperature Precipitation Wind Pressure Humidity
    00:00 +8°C° 0 mm 2 mps 748 mmHg 92%
    01:00 +8°C° 0 mm 2 mps 748 mmHg 93%
    02:00 +7°C° 0 mm 2 mps 748 mmHg 95%
    03:00 +7°C° 0 mm 2 mps 748 mmHg 95%
    04:00 +7°C° 0 mm 2 mps 748 mmHg 95%
    05:00 +7°C° 0 mm 2 mps 748 mmHg 94%
    06:00 +9°C° 0 mm 3 mps 748 mmHg 88%
    07:00 +10°C° 0 mm 4 mps 748 mmHg 82%
    08:00 +12°C° 0 mm 4 mps 748 mmHg 76%
    09:00 +13°C° 0 mm 5 mps 748 mmHg 74%
    10:00 +13°C° 0 mm 5 mps 748 mmHg 72%
    11:00 +13°C° 0 mm 5 mps 748 mmHg 71%
    12:00 +13°C° 0 mm 5 mps 748 mmHg 71%
    13:00 +13°C° 0 mm 5 mps 748 mmHg 70%
    14:00 +14°C° 0 mm 5 mps 748 mmHg 70%
    15:00 +14°C° 0 mm 5 mps 747 mmHg 71%
    16:00 +14°C° 0 mm 5 mps 747 mmHg 71%
    17:00 +14°C° 0 mm 5 mps 747 mmHg 71%
    18:00 +13°C° 0 mm 4 mps 747 mmHg 75%
    19:00 +13°C° 0 mm 4 mps 747 mmHg 79%
    20:00 +12°C° 0 mm 3 mps 747 mmHg 82%
    21:00 +12°C° 0 mm 3 mps 747 mmHg 84%
    22:00 +11°C° 0 mm 4 mps 747 mmHg 86%
    23:00 +11°C° 0 mm 4 mps 746 mmHg 89%

    Tomorrow, 27 May, Monday

    Time Temperature Precipitation Wind Pressure Humidity
    00:00 +12°C° 0 mm 4 mps 746 mmHg 85%
    01:00 +12°C° 0 mm 5 mps 746 mmHg 82%
    02:00 +13°C° 0 mm 5 mps 746 mmHg 79%
    03:00 +12°C° 0 mm 5 mps 746 mmHg 81%
    04:00 +12°C° 0 mm 4 mps 746 mmHg 83%
    05:00 +12°C° 0 mm 4 mps 746 mmHg 85%
    06:00 +14°C° 0 mm 5 mps 746 mmHg 82%
    07:00 +15°C° 0 mm 5 mps 746 mmHg 78%
    08:00 +17°C° 0 mm 6 mps 746 mmHg 74%
    09:00 +19°C° 0 mm 6 mps 746 mmHg 70%
    10:00 +21°C° 0 mm 7 mps 746 mmHg 65%
    11:00 +22°C° 0 mm 7 mps 746 mmHg 60%
    12:00 +23°C° 0 mm 7 mps 745 mmHg 58%
    13:00 +23°C° 0 mm 7 mps 745 mmHg 56%
    14:00 +24°C° 0 mm 7 mps 745 mmHg 55%
    15:00 +24°C° 0 mm 6 mps 745 mmHg 57%
    16:00 +24°C° 0 mm 6 mps 745 mmHg 59%
    17:00 +25°C° 0 mm 5 mps 745 mmHg 61%
    18:00 +22°C° 0.1 mm 4 mps 745 mmHg 68%
    19:00 +21°C° 0.1 mm 4 mps 745 mmHg 75%
    20:00 +19°C° 0.1 mm 3 mps 745 mmHg 82%
    21:00 +18°C° 0 mm 2 mps 746 mmHg 86%
    22:00 +17°C° 0 mm 2 mps 746 mmHg 89%
    23:00 +16°C° 0 mm 2 mps 746 mmHg 93%

    Day after tomorrow, 28 May, Tuesday

    Time Temperature Precipitation Wind Pressure Humidity
    00:00 +15°C° 0 mm 2 mps 746 mmHg 94%
    01:00 +15°C° 0 mm 2 mps 746 mmHg 96%
    02:00 +14°C° 0 mm 2 mps 746 mmHg 97%
    03:00 +15°C° 0 mm 2 mps 746 mmHg 96%
    04:00 +15°C° 0 mm 2 mps 746 mmHg 96%
    05:00 +15°C° 0 mm 2 mps 745 mmHg 96%
    06:00 +15°C° 2.9 mm 2 mps 745 mmHg 97%
    07:00 +16°C° 2.9 mm 3 mps 745 mmHg 97%
    08:00 +16°C° 2.9 mm 3 mps 745 mmHg 97%
    09:00 +17°C° 2 mm 3 mps 744 mmHg 95%
    10:00 +18°C° 2 mm 4 mps 744 mmHg 93%
    11:00 +19°C° 2 mm 5 mps 744 mmHg 91%
    12:00 +21°C° 0.3 mm 5 mps 743 mmHg 86%
    13:00 +22°C° 0.3 mm 5 mps 743 mmHg 82%
    14:00 +23°C° 0.3 mm 5 mps 743 mmHg 77%
    15:00 +23°C° 0.8 mm 4 mps 743 mmHg 78%
    16:00 +23°C° 0.8 mm 4 mps 743 mmHg 79%
    17:00 +24°C° 0.8 mm 3 mps 743 mmHg 80%
    18:00 +22°C° 1 mm 3 mps 743 mmHg 83%
    19:00 +21°C° 1 mm 3 mps 742 mmHg 86%
    20:00 +20°C° 1 mm 3 mps 742 mmHg 89%
    21:00 +19°C° 0.4 mm 3 mps 742 mmHg 91%
    22:00 +18°C° 0.4 mm 2 mps 742 mmHg 93%
    23:00 +17°C° 0.4 mm 2 mps 742 mmHg 94%

    29 May, Wednesday

    Time Temperature Precipitation Wind Pressure Humidity
    00:00 +16°C° 0.1 mm 2 mps 742 mmHg 95%
    01:00 +16°C° 0.1 mm 2 mps 742 mmHg 96%
    02:00 +16°C° 0.1 mm 1 mps 742 mmHg 97%
    03:00 +16°C° 0.5 mm 1 mps 742 mmHg 97%
    04:00 +16°C° 0.5 mm 1 mps 742 mmHg 97%
    05:00 +16°C° 0.5 mm 1 mps 742 mmHg 97%
    06:00 +16°C° 0.5 mm 1 mps 743 mmHg 96%
    07:00 +17°C° 0.5 mm 2 mps 743 mmHg 95%
    08:00 +17°C° 0.5 mm 2 mps 743 mmHg 94%
    09:00 +17°C° 0.3 mm 3 mps 744 mmHg 94%
    10:00 +17°C° 0.3 mm 3 mps 744 mmHg 94%
    11:00 +16°C° 0.3 mm 3 mps 745 mmHg 94%
    12:00 +15°C° 0.1 mm 4 mps 745 mmHg 94%
    13:00 +15°C° 0.1 mm 4 mps 745 mmHg 93%
    14:00 +15°C° 0.1 mm 5 mps 746 mmHg 92%
    15:00 +14°C° 0.1 mm 5 mps 746 mmHg 92%
    16:00 +14°C° 0.1 mm 5 mps 746 mmHg 92%
    17:00 +14°C° 0.1 mm 5 mps 746 mmHg 92%
    18:00 +14°C° 0 mm 4 mps 747 mmHg 92%
    19:00 +13°C° 0 mm 4 mps 747 mmHg 92%
    20:00 +13°C° 0 mm 3 mps 748 mmHg 92%
    21:00 +13°C° 0 mm 3 mps 748 mmHg 92%
    22:00 +12°C° 0 mm 4 mps 748 mmHg 92%
    23:00 +12°C° 0 mm 4 mps 749 mmHg 91%

    30 May, Thursday

    Time Temperature Precipitation Wind Pressure Humidity
    00:00 +11°C° 0 mm 4 mps 749 mmHg 90%
    01:00 +10°C° 0 mm 4 mps 749 mmHg 88%
    02:00 +10°C° 0 mm 3 mps 749 mmHg 87%
    03:00 +8°C° 0.4 mm 4 mps 750 mmHg 89%
    04:00 +7°C° 0.4 mm 4 mps 750 mmHg 90%
    05:00 +7°C° 0.4 mm 5 mps 750 mmHg 92%
    06:00 +7°C° 0.3 mm 5 mps 750 mmHg 93%
    07:00 +7°C° 0.3 mm 5 mps 750 mmHg 93%
    08:00 +7°C° 0.3 mm 5 mps 751 mmHg 93%
    09:00 +8°C° 0.4 mm 4 mps 751 mmHg 93%
    10:00 +8°C° 0.4 mm 4 mps 751 mmHg 93%
    11:00 +10°C° 0.4 mm 3 mps 751 mmHg 92%
    12:00 +11°C° 0.1 mm 4 mps 752 mmHg 86%
    13:00 +12°C° 0.1 mm 4 mps 752 mmHg 80%
    14:00 +14°C° 0.1 mm 4 mps 752 mmHg 73%
    15:00 +14°C° 0 mm 4 mps 752 mmHg 69%
    16:00 +16°C° 0 mm 3 mps 752 mmHg 66%
    17:00 +17°C° 0 mm 3 mps 752 mmHg 62%
    18:00 +14°C° 0 mm 3 mps 753 mmHg 66%
    19:00 +14°C° 0 mm 2 mps 753 mmHg 71%
    20:00 +13°C° 0 mm 1 mps 753 mmHg 76%
    21:00 +12°C° 0 mm 1 mps 754 mmHg 79%
    22:00 +10°C° 0 mm 2 mps 754 mmHg 83%
    23:00 +9°C° 0 mm 2 mps 754 mmHg 86%

    31 May, Friday

    Time Temperature Precipitation Wind Pressure Humidity
    00:00 +8°C° 0 mm 2 mps 755 mmHg 87%
    01:00 +7°C° 0 mm 2 mps 755 mmHg 88%
    02:00 +6°C° 0 mm 2 mps 755 mmHg 88%
    03:00 +6°C° 0 mm 2 mps 755 mmHg 86%
    04:00 +5°C° 0 mm 2 mps 755 mmHg 84%
    05:00 +6°C° 0 mm 1 mps 756 mmHg 81%
    06:00 +8°C° 0 mm 1 mps 756 mmHg 73%
    07:00 +11°C° 0 mm 1 mps 756 mmHg 66%
    08:00 +13°C° 0 mm 2 mps 757 mmHg 58%
    09:00 +14°C° 0 mm 2 mps 757 mmHg 55%
    10:00 +15°C° 0 mm 2 mps 757 mmHg 52%
    11:00 +17°C° 0 mm 2 mps 757 mmHg 49%
    12:00 +17°C° 0 mm 3 mps 757 mmHg 52%
    13:00 +17°C° 0 mm 3 mps 757 mmHg 55%
    14:00 +17°C° 0 mm 3 mps 757 mmHg 58%
    15:00 +17°C° 0.1 mm 3 mps 757 mmHg 59%
    16:00 +18°C° 0.1 mm 3 mps 757 mmHg 60%
    17:00 +18°C° 0.1 mm 3 mps 758 mmHg 61%
    18:00 +16°C° 0 mm 3 mps 758 mmHg 67%
    19:00 +15°C° 0 mm 2 mps 758 mmHg 74%
    20:00 +14°C° 0 mm 2 mps 758 mmHg 80%
    21:00 +12°C° 0 mm 2 mps 758 mmHg 83%
    22:00 +10°C° 0 mm 2 mps 759 mmHg 86%
    23:00 +8°C° 0 mm 2 mps 759 mmHg 89%
    Show more